FW4206 Weather Reports


Display with metric or nautical units.
time (UTC)temp
F
wind
direction
speed
MPH
gust
MPH
rain 1hr
in
rain 24hr
in
rain mn
in
humidity
%
barometer
mb
20260508073043 61 359 1.0 3.0 0.00 0.00 0.00 50 1017.6
20260508071537 61 359 1.0 4.0 0.00 0.00 0.00 51 1017.5
20260508070026 60 359 1.0 2.0 0.00 0.00 0.00 51 1017.3
20260508064523 60 359 0.0 3.0 0.00 0.00 0.00 52 1016.9
20260508063021 59 359 0.0 1.0 0.00 0.00 0.00 54 1016.8
20260508061513 57 359 0.0 2.0 0.00 0.00 0.00 56 1016.6
20260508060007 57 359 1.0 3.0 0.00 0.00 0.00 56 1016.8
20260508054508 57 359 0.0 0.0 0.00 0.00 0.00 56 1016.6
20260508053002 57 359 0.0 4.0 0.00 0.00 0.00 56 1016.4
20260508051501 57 359 3.0 6.0 0.00 0.00 0.00 56 1016.6
20260508044544 57 359 3.0 5.0 0.00 0.00 0.00 56 1016.3
20260508043107 57 359 3.0 8.0 0.00 0.00 0.00 55 1016.2
20260508041555 58 359 5.0 8.0 0.00 0.00 0.00 54 1016.3
20260508040033 58 359 2.0 4.0 0.00 0.00 0.00 53 1016.1
20260508034533 58 359 2.0 4.0 0.00 0.00 0.00 53 1016.0
20260508033028 58 359 1.0 3.0 0.00 0.00 0.00 53 1015.9
20260508031519 58 359 0.0 4.0 0.00 0.00 0.00 53 1015.8
20260508030018 58 359 0.0 3.0 0.00 0.00 0.00 53 1015.6
20260508024518 58 359 3.0 6.0 0.00 0.00 0.00 53 1015.8
20260508023047 58 359 3.0 6.0 0.00 0.00 0.00 53 1015.8
20260508021547 58 359 4.0 9.0 0.00 0.00 0.00 53 1015.9
20260508020021 58 359 2.0 6.0 0.00 0.00 0.00 53 1016.0
20260508014545 58 359 2.0 8.0 0.00 0.00 0.00 53 1016.0
20260508013045 58 359 4.0 11.0 0.00 0.00 0.00 52 1015.7
20260508011544 59 359 4.0 11.0 0.00 0.00 0.00 52 1016.4
20260508010025 59 359 7.0 11.0 0.00 0.00 0.00 52 1016.5
20260508004522 59 359 6.0 13.0 0.00 0.00 0.00 52 1016.7
20260508003011 59 359 6.0 14.0 0.00 0.00 0.00 51 1016.8
20260508001513 60 359 6.0 11.0 0.00 0.00 0.00 50 1016.7
20260508000011 60 359 5.0 9.0 0.00 0.00 0.00 49 1016.6
20260507234509 60 359 5.0 8.0 0.00 0.00 0.00 49 1016.5
20260507233056 60 359 3.0 9.0 0.00 0.00 0.00 50 1016.4
20260507231557 61 359 3.0 6.0 0.00 0.00 0.00 51 1016.7
20260507230056 61 359 4.0 8.0 0.00 0.00 0.00 54 1016.6
20260507224536 61 359 0.0 0.0 0.00 0.00 0.00 55 1016.5
20260507223036 62 359 1.0 2.0 0.00 0.00 0.00 56 1016.6
20260507221532 62 359 0.0 3.0 0.00 0.00 0.00 55 1016.7
20260507220029 62 359 0.0 2.0 0.00 0.00 0.00 56 1016.7
20260507214527 62 359 0.0 3.0 0.00 0.00 0.00 56 1016.8
20260507213026 62 359 2.0 4.0 0.00 0.00 0.00 56 1016.9
20260507211535 62 359 3.0 6.0 0.00 0.00 0.00 56 1016.9
20260507210026 62 359 3.0 9.0 0.00 0.00 0.00 56 1017.2
20260507204524 62 359 4.0 11.0 0.00 0.00 0.00 56 1017.0
20260507203030 62 359 9.0 12.0 0.00 0.00 0.00 55 1016.9
20260507201520 62 359 9.0 12.0 0.00 0.00 0.00 54 1016.7
20260507200024 62 359 6.0 16.0 0.00 0.00 0.00 56 1016.5
20260507194553 62 359 9.0 17.0 0.00 0.00 0.00 58 1016.6
20260507193051 62 359 12.0 16.0 0.00 0.00 0.00 58 1016.5
20260507191550 62 359 11.0 16.0 0.00 0.00 0.00 57 1016.3
20260507190047 63 359 9.0 14.0 0.00 0.00 0.00 56 1016.2
20260507184547 63 359 10.0 13.0 0.00 0.00 0.00 54 1016.0
20260507183049 63 359 8.0 17.0 0.00 0.00 0.00 53 1015.9
20260507181515 64 359 14.0 21.0 0.00 0.00 0.00 50 1015.7
20260507180015 64 359 11.0 21.0 0.00 0.00 0.00 48 1015.7
20260507174515 64 359 15.0 24.0 0.00 0.00 0.00 44 1015.6
20260507173012 64 359 12.0 21.0 0.00 0.00 0.00 52 1015.6
20260507171512 65 359 13.0 22.0 0.00 0.00 0.00 50 1015.5
20260507170011 64 359 13.0 25.0 0.00 0.00 0.00 51 1015.5
20260507164509 65 359 16.0 25.0 0.00 0.00 0.00 51 1015.4
20260507163008 65 359 16.0 24.0 0.00 0.00 0.00 49 1015.3
20260507161508 65 359 13.0 19.0 0.00 0.00 0.00 50 1015.3
20260507160017 66 359 12.0 21.0 0.00 0.00 0.00 48 1015.3
20260507154538 66 359 15.0 19.0 0.00 0.00 0.00 48 1015.1
20260507153043 66 359 14.0 21.0 0.00 0.00 0.00 50 1015.2
20260507151521 66 359 17.0 26.0 0.00 0.00 0.00 46 1015.3
20260507150026 66 359 16.0 25.0 0.00 0.00 0.00 45 1015.4
20260507143039 68 359 15.0 22.0 0.00 0.00 0.00 41 1015.2
20260507141537 68 359 10.0 21.0 0.00 0.00 0.00 41 1015.5
20260507140032 68 359 13.0 23.0 0.00 0.00 0.00 41 1015.5
20260507134531 68 359 14.0 20.0 0.00 0.00 0.00 42 1015.6
20260507133030 66 359 14.0 23.0 0.00 0.00 0.00 45 1015.9
20260507131501 66 359 13.0 21.0 0.00 0.00 0.00 45 1016.0
20260507130111 66 359 17.0 23.0 0.00 0.00 0.00 46 1016.1
20260507124635 65 359 14.0 23.0 0.00 0.00 0.00 47 1016.2
20260507123103 65 359 14.0 23.0 0.00 0.00 0.00 48 1016.2
20260507121555 66 359 12.0 18.0 0.00 0.00 0.00 47 1016.4
20260507120053 67 359 11.0 16.0 0.00 0.00 0.00 49 1016.5
20260507114607 66 359 11.0 17.0 0.00 0.00 0.00 49 1016.6
20260507113054 67 359 11.0 16.0 0.00 0.00 0.00 49 1016.5
20260507111548 68 359 7.0 12.0 0.00 0.00 0.00 48 1016.6
20260507110048 67 359 2.0 9.0 0.00 0.00 0.00 50 1016.6
20260507104517 68 359 1.0 5.0 0.00 0.00 0.00 50 1016.5
20260507103013 67 359 1.0 5.0 0.00 0.00 0.00 52 1016.5
20260507101507 66 185 1.0 4.0 0.00 0.00 0.00 54 1016.5
20260507100004 65 359 1.0 4.0 0.00 0.00 0.00 55 1016.6
20260507094600 64 359 0.0 3.0 0.00 0.00 0.00 57 1016.7
20260507093059 64 359 0.0 4.0 0.00 0.00 0.00 57 1016.7
20260507091554 63 359 0.0 4.0 0.00 0.00 0.00 59 1016.7
20260507090050 61 359 1.0 3.0 0.00 0.00 0.00 60 1016.7
20260507084550 61 359 0.0 8.0 0.00 0.00 0.00 59 1016.6
20260507083047 61 359 3.0 8.0 0.00 0.00 0.00 59 1016.4
20260507081544 61 359 1.0 5.0 0.00 0.00 0.00 59 1016.4
20260507080038 60 359 2.0 9.0 0.00 0.00 0.00 57 1016.2
20260507074537 58 359 1.0 8.0 0.00 0.00 0.00 57 1016.1